Terug naar catalogus

LEASAT 5

ActiefCommunicatieGEO
NORAD 20410·PAYLOAD·🇺🇸 United States

Gelanceerd Jan 9, 1990 vanaf Cape Canaveral Space Force Station

Loading…

TLE

VersSource: Space-Track

Epoch: Sep 13, 2026, 22:55 UTC

1 20410U 90002B   26256.95530906 -.00000125  00000-0  00000-0 0  9995
2 20410  11.0796 352.4335 0002556  73.1497 274.2834  0.99599488119302

Volg LEASAT 5 in realtime met AllMySat

Download on the App Store